Location: Borojevi?i
(45.0486°N, 16.2297°E)
Time: 20:23:43
(UTC+00:00)

ATLAS 3B R/B - Pass Details

Date: 08 August 2020
Orbit: 1016 x 1179 km, 63.8° (Epoch: 21 September)

Event Time Altitude Azimuth Distance (km) Brightness Sun altitude
Exits shadow 20:34:02 15° 86° (E) 2,463 4.3 -20.6°
Drops below altitude 10° 20:36:02 10° 69° (ENE) 2,810 4.7 -20.9°
Sets 20:39:39 0° 51° (NE) 3,779 5.6 -21.2°
